COSMOS 2251 DEB

Satellite information

Favourite Embed

Satellite Type and Status

DEBRISIN ORBIT

Key statistics

Satellite COSMOS 2251 DEB at a glance.

Uptime

11764

Days in orbit

Revolutions

≈ 14.6

Per day

Orbit

LEO

Low Earth Orbit

Inclination

74.1

Latest

Satellite identification and parameters

Extended collection of information and parameters for COSMOS 2251 DEB.

Object identification

Identified? True

Debris? True

Object name: COSMOS 2251 DEB

International designator: 1993-036APJ

Object number (NORAD): 35667

Object ID (CCSDS): 35667

Country: COMMONWEALTH OF INDEPENDENT STATES (CIS)

Current information (Y/N): Y

RCS size: SMALL

Orbital parameters

Period: 98.724 minutes

Inclination: 74.0592 deg

SMA: 7075.787 km

Apoapsis: 712.459 km

Periapsis: 682.845 km

RAAN: 338.4498 deg

Eccentricy: 0.00209258

Argument of periapsis: 61.7811 deg

Mean anomaly: 298.5464 deg

Mean motion: 14.58614832 rev/day

Mean motion (dot): 0.0000625 rev/day2

B* drag term: 0.0013433133 1/REarth

Two-line elements (TLE)

Creation date: Aug. 31, 2025, 2:26 a.m.

Reference frame: TEME

Reference center: EARTH

Epoch: Aug. 30, 2025, 1:16 p.m. UTC

TLE line 0: 0 COSMOS 2251 DEB

TLE line 1: 1 35667U 93036APJ 25242.55289425 .00006250 00000-0 13433-2 0 9992

TLE line 2: 2 35667 74.0592 338.4498 0020926 61.7811 298.5464 14.58614832692836

Live tracking on map

Real-time ground track for satellite COSMOS 2251 DEB.

In-orbit conjunctions

A list of the most updated potential collisions computed for object COSMOS 2251 DEB.

Target Orbit TCA Probability of collision Miss distance Type
COSMOS 371 LEO 2025-04-29 03:29:42 0.0001474415 960.0 (m) PAYLOAD
CZ-6A DEB SSO 2024-11-11 03:28:23 0.0001807808 297.0 (m) DEBRIS
CZ-6A DEB SSO 2024-11-08 14:20:24 0.001104655 185.0 (m) DEBRIS
FENGYUN 1C DEB SSO 2024-09-27 01:27:16 0.0001881615 669.0 (m) DEBRIS

Associated space launch

Military communications satellite. Destroyed in a collision with Iridium 33.

COSMOS 2251 DEB was lifted into orbit during the mission ‘Kosmos-3M | Strela-2M 51’, on board a Kosmos-3M space rocket.

The launch took place on June 16, 1993, 4:17 a.m. from 132/1 (132L).

For more information about the launch, click the button.

Launch to space Kosmos-3M | Strela-2M 51
Kosmos-3M | Strela-2M 51

Agency: N/A

Status: Launch Successful

Launch date: June 16, 1993, 4:17 a.m. UTC

Rocket: Kosmos-3M

Launch pad: 132/1 (132L)

Location: Plesetsk Cosmodrome, Russian Federation

...

Latest news about this satellite

There are no fresh news available about this satellite. Check back as we update our databases every day.


Newsletter sign-up

Weekly statistics, charts and insights to help you stay on top of the space industry.